CPA316 VHHH-ZSPD

Flight info

Callsign CPA316
Flight time 1h 49m
Altitude 35000
Route LEKEN V611 LELIM/N0494F371 M503 TOLAK/K0915S1130 M503 OKATO/K0913S1160 R596 DST/K0917S1130 B221 SHZ W58 BK BK81A
Aircraft B77W/H-SDE1E2E3FGHIJ2J3J4J5M1RWXY/LB1D1

Departure

Time 2026-05-05 01:27
Airport Hong Kong International Airport (VHHH)

Arrival

Time 2026-05-05 03:16
Airport Shanghai Pudong International Airport (ZSPD)
Time Latitude Longitude Altitude Speed Heading
2026-05-05 00:50 22.31136 113.93510 42 ft 0 kts 71°
2026-05-05 01:14 22.31136 113.93509 42 ft 1 kts 71°
2026-05-05 01:14 22.31128 113.93485 40 ft 4 kts 71°
2026-05-05 01:15 22.31119 113.93458 39 ft 4 kts 71°
2026-05-05 01:15 22.31111 113.93434 39 ft 4 kts 73°
2026-05-05 01:15 22.31108 113.93411 40 ft 4 kts 105°
2026-05-05 01:15 22.31114 113.93397 36 ft 4 kts 151°
2026-05-05 01:16 22.31138 113.93388 40 ft 4 kts 165°
2026-05-05 01:16 22.31152 113.93384 40 ft 0 kts 161°
2026-05-05 01:18 22.31151 113.93384 40 ft 2 kts 161°
2026-05-05 01:18 22.31076 113.93412 42 ft 18 kts 161°
2026-05-05 01:19 22.30981 113.93373 42 ft 17 kts 238°
2026-05-05 01:19 22.30927 113.93263 42 ft 17 kts 244°
2026-05-05 01:19 22.30887 113.93147 41 ft 17 kts 250°
2026-05-05 01:19 22.30849 113.93030 41 ft 17 kts 251°
2026-05-05 01:20 22.30811 113.92913 41 ft 17 kts 250°
2026-05-05 01:20 22.30773 113.92796 41 ft 17 kts 251°
2026-05-05 01:20 22.30734 113.92674 41 ft 20 kts 251°
2026-05-05 01:20 22.30685 113.92523 42 ft 21 kts 251°
2026-05-05 01:21 22.30651 113.92405 42 ft 8 kts 272°
2026-05-05 01:21 22.30699 113.92367 42 ft 13 kts 339°
2026-05-05 01:21 22.30834 113.92315 42 ft 27 kts 341°
2026-05-05 01:21 22.31013 113.92248 42 ft 27 kts 341°
2026-05-05 01:22 22.31193 113.92181 42 ft 27 kts 340°
2026-05-05 01:22 22.31371 113.92113 41 ft 27 kts 340°
2026-05-05 01:22 22.31535 113.92052 42 ft 15 kts 341°
2026-05-05 01:22 22.31612 113.91985 41 ft 15 kts 280°
2026-05-05 01:23 22.31581 113.91872 41 ft 16 kts 250°
2026-05-05 01:23 22.31533 113.91721 42 ft 28 kts 251°
2026-05-05 01:23 22.31467 113.91519 42 ft 29 kts 251°
2026-05-05 01:23 22.31401 113.91314 43 ft 29 kts 251°
2026-05-05 01:24 22.31335 113.91109 42 ft 29 kts 251°
2026-05-05 01:24 22.31268 113.90904 42 ft 29 kts 251°
2026-05-05 01:24 22.31202 113.90699 42 ft 29 kts 251°
2026-05-05 01:24 22.31136 113.90494 41 ft 29 kts 251°
2026-05-05 01:25 22.31069 113.90289 41 ft 29 kts 250°
2026-05-05 01:25 22.31002 113.90084 42 ft 29 kts 250°
2026-05-05 01:25 22.30940 113.89887 42 ft 23 kts 251°
2026-05-05 01:25 22.30956 113.89805 42 ft 11 kts 333°
2026-05-05 01:26 22.31029 113.89775 41 ft 12 kts 340°
2026-05-05 01:26 22.31082 113.89778 41 ft 6 kts 46°
2026-05-05 01:26 22.31102 113.89822 41 ft 7 kts 70°
2026-05-05 01:26 22.31138 113.89933 42 ft 33 kts 71°
2026-05-05 01:27 22.31306 113.90455 39 ft 114 kts 71°
2026-05-05 01:27 22.31637 113.91504 106 ft 171 kts 72°
2026-05-05 01:27 22.32024 113.92728 835 ft 175 kts 72°
2026-05-05 01:27 22.32434 113.93992 1553 ft 185 kts 73°
2026-05-05 01:28 22.32878 113.95365 2045 ft 202 kts 73°
2026-05-05 01:28 22.33381 113.96837 2644 ft 217 kts 66°
2026-05-05 01:28 22.34179 113.98248 3427 ft 225 kts 57°
2026-05-05 01:28 22.35077 113.99632 4206 ft 228 kts 54°
2026-05-05 01:29 22.35997 114.01052 5206 ft 234 kts 53°
2026-05-05 01:29 22.36622 114.02027 5895 ft 241 kts 53°
2026-05-05 01:29 22.37922 114.04077 7289 ft 252 kts 55°
2026-05-05 01:29 22.38571 114.05107 8048 ft 250 kts 55°
2026-05-05 01:30 22.39832 114.07218 9248 ft 256 kts 67°
2026-05-05 01:30 22.40125 114.08490 9660 ft 261 kts 92°
2026-05-05 01:30 22.39464 114.11067 10059 ft 285 kts 117°
2026-05-05 01:30 22.38901 114.12403 10172 ft 304 kts 117°
2026-05-05 01:31 22.37985 114.14568 10381 ft 331 kts 116°
2026-05-05 01:31 22.36999 114.16925 10581 ft 359 kts 116°
2026-05-05 01:31 22.35950 114.19485 10874 ft 381 kts 115°
2026-05-05 01:31 22.34873 114.22150 11590 ft 391 kts 115°
2026-05-05 01:32 22.33738 114.24821 12380 ft 391 kts 122°
2026-05-05 01:32 22.31997 114.27080 13147 ft 395 kts 141°
2026-05-05 01:32 22.29726 114.28756 14068 ft 395 kts 155°
2026-05-05 01:32 22.27216 114.29981 14933 ft 397 kts 159°
2026-05-05 01:33 22.24657 114.31183 15650 ft 405 kts 159°
2026-05-05 01:33 22.22177 114.32612 16312 ft 415 kts 149°
2026-05-05 01:33 22.19808 114.34454 17041 ft 423 kts 145°
2026-05-05 01:33 22.17478 114.36434 17821 ft 428 kts 144°
2026-05-05 01:34 22.15120 114.38426 18531 ft 434 kts 146°
2026-05-05 01:34 22.12692 114.40408 19144 ft 440 kts 147°
2026-05-05 01:34 22.10204 114.42381 19776 ft 447 kts 147°
2026-05-05 01:34 22.07672 114.44370 20413 ft 453 kts 148°
2026-05-05 01:35 22.05104 114.46386 21004 ft 459 kts 148°
2026-05-05 01:35 22.02507 114.48430 21598 ft 465 kts 148°
2026-05-05 01:35 21.99876 114.50504 22180 ft 469 kts 147°
2026-05-05 01:35 21.97506 114.52916 22546 ft 484 kts 131°
2026-05-05 01:36 21.95792 114.56143 23023 ft 499 kts 112°
2026-05-05 01:36 21.94933 114.59721 23534 ft 501 kts 103°
2026-05-05 01:36 21.94219 114.63441 23909 ft 509 kts 103°
2026-05-05 01:36 21.93486 114.67187 24383 ft 513 kts 103°
2026-05-05 01:37 21.92720 114.70949 24912 ft 516 kts 104°
2026-05-05 01:37 21.91924 114.74726 25412 ft 519 kts 104°
2026-05-05 01:37 21.91106 114.78535 25882 ft 523 kts 104°
2026-05-05 01:37 21.90277 114.82363 26308 ft 527 kts 104°
2026-05-05 01:38 21.89441 114.86237 26740 ft 531 kts 104°
2026-05-05 01:38 21.88611 114.90125 27182 ft 535 kts 103°
2026-05-05 01:38 21.88143 114.94070 27581 ft 541 kts 91°
2026-05-05 01:38 21.88245 114.98130 28009 ft 544 kts 86°
2026-05-05 01:39 21.88504 115.02210 28411 ft 547 kts 86°
2026-05-05 01:39 21.88769 115.06314 28783 ft 551 kts 86°
2026-05-05 01:39 21.88981 115.10455 29136 ft 555 kts 88°
2026-05-05 01:39 21.89134 115.14573 29471 ft 558 kts 88°
2026-05-05 01:40 21.89253 115.18759 29811 ft 561 kts 89°
2026-05-05 01:40 21.89366 115.22971 30160 ft 563 kts 89°
2026-05-05 01:40 21.89489 115.27199 30540 ft 563 kts 88°
2026-05-05 01:40 21.89615 115.31405 30962 ft 561 kts 88°
2026-05-05 01:41 21.89739 115.35597 31419 ft 560 kts 88°
2026-05-05 01:41 21.89861 115.39783 31876 ft 558 kts 88°
2026-05-05 01:41 21.89981 115.43953 32330 ft 557 kts 88°
2026-05-05 01:41 21.90099 115.48118 32757 ft 556 kts 88°
2026-05-05 01:42 21.90216 115.52272 33189 ft 556 kts 88°
2026-05-05 01:42 21.90333 115.56430 33633 ft 554 kts 88°
2026-05-05 01:42 21.90482 115.60519 34056 ft 553 kts 85°
2026-05-05 01:42 21.90925 115.64623 34414 ft 552 kts 78°
2026-05-05 01:43 21.91907 115.68608 34796 ft 549 kts 69°
2026-05-05 01:43 21.93332 115.72415 35071 ft 546 kts 62°
2026-05-05 01:43 21.97315 115.79293 35051 ft 539 kts 50°
2026-05-05 01:44 22.01772 115.85804 35045 ft 540 kts 50°
2026-05-05 01:44 22.06187 115.92318 35049 ft 541 kts 50°
2026-05-05 01:45 22.10607 115.98964 35050 ft 542 kts 51°
2026-05-05 01:45 22.14955 116.05553 35104 ft 544 kts 51°
2026-05-05 01:46 22.19367 116.12246 35052 ft 546 kts 51°
2026-05-05 01:46 22.23770 116.18927 35061 ft 545 kts 51°
2026-05-05 01:47 22.28167 116.25602 35047 ft 544 kts 51°
2026-05-05 01:47 22.32543 116.32252 35057 ft 542 kts 51°
2026-05-05 01:48 22.36900 116.38883 35059 ft 541 kts 51°
2026-05-05 01:48 22.41230 116.45480 35063 ft 541 kts 51°
2026-05-05 01:49 22.45586 116.52125 35062 ft 542 kts 51°
2026-05-05 01:49 22.49950 116.58791 35065 ft 543 kts 51°
2026-05-05 01:50 22.54322 116.65478 35067 ft 544 kts 51°
2026-05-05 01:50 22.58707 116.72193 35068 ft 546 kts 51°
2026-05-05 01:51 22.63095 116.78921 35069 ft 547 kts 51°
2026-05-05 01:51 22.67463 116.85628 35074 ft 547 kts 51°
2026-05-05 01:52 22.71850 116.92373 35072 ft 547 kts 51°
2026-05-05 01:52 22.76233 116.99120 35072 ft 548 kts 51°
2026-05-05 01:53 22.80618 117.05879 35070 ft 548 kts 51°
2026-05-05 01:53 22.85001 117.12643 35072 ft 548 kts 52°
2026-05-05 01:54 22.89362 117.19382 35071 ft 548 kts 52°
2026-05-05 01:54 22.93744 117.26163 35075 ft 548 kts 51°
2026-05-05 01:55 22.98125 117.32952 35074 ft 548 kts 51°
2026-05-05 01:55 23.02493 117.39729 35076 ft 548 kts 51°
2026-05-05 01:56 23.06834 117.46473 35160 ft 547 kts 51°
2026-05-05 01:56 23.11443 117.53016 35170 ft 543 kts 44°
2026-05-05 01:57 23.16508 117.59107 35170 ft 544 kts 43°
2026-05-05 01:57 23.21623 117.65191 35177 ft 545 kts 43°
2026-05-05 01:58 23.26711 117.71326 35178 ft 546 kts 44°
2026-05-05 01:58 23.31759 117.77466 35182 ft 547 kts 44°
2026-05-05 01:59 23.36844 117.83665 35175 ft 548 kts 44°
2026-05-05 01:59 23.41922 117.89857 35173 ft 548 kts 44°
2026-05-05 02:00 23.46995 117.96048 35186 ft 548 kts 44°
2026-05-05 02:00 23.52057 118.02229 35172 ft 551 kts 44°
2026-05-05 02:01 23.57169 118.08482 35154 ft 551 kts 44°
2026-05-05 02:01 23.62255 118.14714 35176 ft 548 kts 44°
2026-05-05 02:02 23.67314 118.20920 35173 ft 546 kts 44°
2026-05-05 02:02 23.72362 118.27117 35170 ft 546 kts 44°
2026-05-05 02:03 23.77404 118.33315 35183 ft 546 kts 44°
2026-05-05 02:03 23.82453 118.39532 35185 ft 548 kts 44°
2026-05-05 02:04 23.87490 118.45743 35177 ft 549 kts 44°
2026-05-05 02:04 23.92539 118.52035 35178 ft 550 kts 44°
2026-05-05 02:05 23.97582 118.58357 35178 ft 551 kts 44°
2026-05-05 02:05 24.02589 118.64637 35175 ft 551 kts 44°
2026-05-05 02:06 24.07644 118.70979 35174 ft 552 kts 44°
2026-05-05 02:06 24.12690 118.77313 35174 ft 552 kts 44°
2026-05-05 02:07 24.17741 118.83663 35176 ft 552 kts 44°
2026-05-05 02:07 24.22788 118.90018 35175 ft 553 kts 44°
2026-05-05 02:08 24.27840 118.96387 35174 ft 553 kts 44°
2026-05-05 02:08 24.32889 119.02759 35177 ft 554 kts 44°
2026-05-05 02:09 24.37947 119.09153 35180 ft 554 kts 44°
2026-05-05 02:09 24.42977 119.15519 35180 ft 555 kts 44°
2026-05-05 02:10 24.48032 119.21925 35177 ft 555 kts 44°
2026-05-05 02:10 24.53098 119.28355 35176 ft 556 kts 44°
2026-05-05 02:11 24.58164 119.34793 35175 ft 557 kts 44°
2026-05-05 02:11 24.63234 119.41244 35174 ft 557 kts 44°
2026-05-05 02:12 24.70802 119.50892 35178 ft 558 kts 44°
2026-05-05 02:13 24.75874 119.57368 35179 ft 558 kts 44°
2026-05-05 02:13 24.80948 119.63855 35182 ft 558 kts 44°
2026-05-05 02:14 24.86016 119.70344 35185 ft 559 kts 44°
2026-05-05 02:14 24.90229 119.75746 35183 ft 560 kts 44°
2026-05-05 02:15 24.96130 119.83323 35182 ft 559 kts 44°
2026-05-05 02:15 25.01466 119.89486 35194 ft 552 kts 36°
2026-05-05 02:16 25.06460 119.93793 35195 ft 546 kts 30°
2026-05-05 02:16 25.12605 119.98732 35187 ft 547 kts 30°
2026-05-05 02:17 25.18756 120.03731 35191 ft 548 kts 30°
2026-05-05 02:17 25.24882 120.08781 35178 ft 551 kts 30°
2026-05-05 02:18 25.30979 120.13833 35193 ft 551 kts 30°
2026-05-05 02:18 25.37107 120.18911 35190 ft 550 kts 30°
2026-05-05 02:19 25.43242 120.23994 35194 ft 550 kts 31°
2026-05-05 02:19 25.49380 120.29087 35196 ft 550 kts 31°
2026-05-05 02:20 25.55511 120.34182 35195 ft 551 kts 31°
2026-05-05 02:20 25.61613 120.39216 35199 ft 549 kts 28°
2026-05-05 02:21 25.68140 120.43498 35220 ft 542 kts 20°
2026-05-05 02:21 25.74853 120.47374 35194 ft 543 kts 20°
2026-05-05 02:22 25.81499 120.51228 35199 ft 543 kts 20°
2026-05-05 02:22 25.88303 120.54630 35198 ft 529 kts
2026-05-05 02:23 25.95410 120.56251 35198 ft 514 kts 356°
2026-05-05 02:23 26.02500 120.56566 35209 ft 509 kts 352°
2026-05-05 02:24 26.09548 120.56736 35212 ft 510 kts 352°
2026-05-05 02:24 26.16663 120.56950 35218 ft 512 kts 353°
2026-05-05 02:25 26.23799 120.57211 35221 ft 513 kts 353°
2026-05-05 02:25 26.30940 120.57487 35221 ft 513 kts 353°
2026-05-05 02:26 26.38091 120.57761 35225 ft 514 kts 353°
2026-05-05 02:26 26.45239 120.58033 35231 ft 514 kts 353°
2026-05-05 02:27 26.52410 120.58303 35223 ft 515 kts 353°
2026-05-05 02:27 26.59577 120.58575 35218 ft 515 kts 353°
2026-05-05 02:28 26.66733 120.58848 35224 ft 514 kts 353°
2026-05-05 02:28 26.73838 120.59119 35222 ft 513 kts 352°
2026-05-05 02:29 26.80983 120.59390 35231 ft 513 kts 352°
2026-05-05 02:29 26.88132 120.59662 35238 ft 514 kts 352°
2026-05-05 02:30 26.95276 120.59934 35228 ft 514 kts 352°
2026-05-05 02:30 27.02436 120.60207 35234 ft 514 kts 352°
2026-05-05 02:31 27.09589 120.60481 35239 ft 515 kts 352°
2026-05-05 02:31 27.16718 120.60754 35242 ft 515 kts 352°
2026-05-05 02:32 27.23879 120.61029 35244 ft 515 kts 352°
2026-05-05 02:32 27.31053 120.61304 35242 ft 516 kts 352°
2026-05-05 02:33 27.38238 120.61580 35248 ft 516 kts 352°
2026-05-05 02:33 27.45432 120.61856 35251 ft 517 kts 352°
2026-05-05 02:34 27.52632 120.62135 35256 ft 518 kts 352°
2026-05-05 02:34 27.59825 120.62413 35257 ft 518 kts 352°
2026-05-05 02:35 27.67046 120.62691 35250 ft 518 kts 352°
2026-05-05 02:35 27.74258 120.62972 35256 ft 518 kts 352°
2026-05-05 02:36 27.81450 120.63477 35254 ft 523 kts 355°
2026-05-05 02:36 27.88694 120.64250 35252 ft 523 kts 355°
2026-05-05 02:37 27.95940 120.64965 35248 ft 522 kts 355°
2026-05-05 02:37 28.03176 120.65635 35256 ft 522 kts 355°
2026-05-05 02:38 28.10410 120.66339 35244 ft 522 kts 355°
2026-05-05 02:38 28.17663 120.67060 35263 ft 522 kts 355°
2026-05-05 02:39 28.24900 120.67779 35264 ft 522 kts 355°
2026-05-05 02:39 28.32134 120.68499 35215 ft 521 kts 355°
2026-05-05 02:40 28.39303 120.69205 35257 ft 520 kts 355°
2026-05-05 02:40 28.46528 120.69917 35245 ft 522 kts 355°
2026-05-05 02:41 28.53775 120.70646 35242 ft 523 kts 355°
2026-05-05 02:41 28.61049 120.71379 35240 ft 524 kts 355°
2026-05-05 02:42 28.68278 120.72109 35237 ft 523 kts 355°
2026-05-05 02:42 28.75533 120.72870 35230 ft 523 kts 355°
2026-05-05 02:43 28.82797 120.73665 35230 ft 523 kts 355°
2026-05-05 02:43 28.90041 120.74439 35237 ft 523 kts 355°
2026-05-05 02:44 28.97259 120.75182 35224 ft 522 kts 355°
2026-05-05 02:44 29.04507 120.75923 35210 ft 523 kts 355°
2026-05-05 02:45 29.11743 120.76678 35218 ft 523 kts 356°
2026-05-05 02:45 29.15364 120.77378 35223 ft 534 kts
2026-05-05 02:45 29.18955 120.78625 35226 ft 544 kts 12°
2026-05-05 02:46 29.25897 120.82308 35217 ft 558 kts 25°
2026-05-05 02:46 29.32459 120.87115 35169 ft 559 kts 27°
2026-05-05 02:46 29.35717 120.89569 34727 ft 560 kts 27°
2026-05-05 02:47 29.38955 120.92003 34200 ft 555 kts 26°
2026-05-05 02:47 29.42144 120.94379 33617 ft 551 kts 26°
2026-05-05 02:47 29.45349 120.96745 33071 ft 545 kts 26°
2026-05-05 02:47 29.48531 120.99080 32558 ft 539 kts 26°
2026-05-05 02:48 29.51676 121.01381 32049 ft 535 kts 26°
2026-05-05 02:48 29.54808 121.03671 31543 ft 530 kts 26°
2026-05-05 02:48 29.57909 121.05941 31043 ft 526 kts 26°
2026-05-05 02:48 29.60983 121.08195 30554 ft 523 kts 26°
2026-05-05 02:49 29.64036 121.10436 30027 ft 520 kts 26°
2026-05-05 02:49 29.67078 121.12671 29446 ft 517 kts 26°
2026-05-05 02:49 29.70092 121.14890 28901 ft 512 kts 27°
2026-05-05 02:49 29.73084 121.17094 28414 ft 506 kts 27°
2026-05-05 02:50 29.76009 121.19251 27887 ft 502 kts 27°
2026-05-05 02:50 29.78941 121.21415 27397 ft 498 kts 27°
2026-05-05 02:50 29.81852 121.23561 26873 ft 495 kts 28°
2026-05-05 02:50 29.84734 121.25688 26355 ft 490 kts 28°
2026-05-05 02:51 29.87591 121.27799 25885 ft 485 kts 28°
2026-05-05 02:51 29.90428 121.29897 25385 ft 482 kts 28°
2026-05-05 02:51 29.93239 121.31979 24874 ft 477 kts 29°
2026-05-05 02:51 29.96020 121.34039 24381 ft 473 kts 29°
2026-05-05 02:52 29.98783 121.36085 23880 ft 469 kts 29°
2026-05-05 02:52 30.01521 121.38114 23328 ft 465 kts 30°
2026-05-05 02:52 30.04228 121.40122 22780 ft 460 kts 30°
2026-05-05 02:52 30.06890 121.42100 22268 ft 455 kts 30°
2026-05-05 02:53 30.09539 121.44070 21782 ft 450 kts 30°
2026-05-05 02:53 30.12154 121.46015 21288 ft 445 kts 30°
2026-05-05 02:53 30.14710 121.47916 20817 ft 440 kts 30°
2026-05-05 02:53 30.17275 121.49825 20329 ft 436 kts 30°
2026-05-05 02:54 30.19807 121.51711 19848 ft 432 kts 30°
2026-05-05 02:54 30.22323 121.53586 19383 ft 428 kts 31°
2026-05-05 02:54 30.24817 121.55446 18893 ft 425 kts 31°
2026-05-05 02:54 30.27329 121.57222 18529 ft 417 kts 27°
2026-05-05 02:55 30.29847 121.58827 18166 ft 409 kts 26°
2026-05-05 02:55 30.32327 121.60380 17832 ft 401 kts 26°
2026-05-05 02:55 30.34716 121.61902 17506 ft 393 kts 27°
2026-05-05 02:55 30.37088 121.63433 17195 ft 385 kts 27°
2026-05-05 02:56 30.39435 121.64914 16893 ft 378 kts 26°
2026-05-05 02:56 30.41732 121.66342 16607 ft 372 kts 26°
2026-05-05 02:56 30.43977 121.67734 16326 ft 369 kts 26°
2026-05-05 02:56 30.46238 121.69138 16034 ft 367 kts 26°
2026-05-05 02:57 30.48478 121.70534 15750 ft 364 kts 26°
2026-05-05 02:57 30.50715 121.71930 15472 ft 362 kts 26°
2026-05-05 02:57 30.52929 121.73315 15193 ft 361 kts 26°
2026-05-05 02:57 30.55135 121.74682 14909 ft 357 kts 24°
2026-05-05 02:58 30.57427 121.75737 14616 ft 353 kts 15°
2026-05-05 02:58 30.59785 121.76518 14335 ft 351 kts 12°
2026-05-05 02:58 30.62115 121.77215 14046 ft 350 kts 11°
2026-05-05 02:58 30.64475 121.77923 13748 ft 350 kts 12°
2026-05-05 02:59 30.66825 121.78649 13436 ft 349 kts 12°
2026-05-05 02:59 30.69158 121.79391 13133 ft 347 kts 13°
2026-05-05 02:59 30.71483 121.80145 12842 ft 346 kts 13°
2026-05-05 02:59 30.73794 121.80903 12554 ft 344 kts 13°
2026-05-05 03:00 30.76092 121.81663 12271 ft 343 kts 14°
2026-05-05 03:00 30.78383 121.82421 11991 ft 341 kts 14°
2026-05-05 03:00 30.80665 121.83178 11711 ft 339 kts 14°
2026-05-05 03:00 30.82934 121.83931 11437 ft 338 kts 14°
2026-05-05 03:01 30.84430 121.84428 11253 ft 337 kts 14°
2026-05-05 03:01 30.86668 121.85172 11001 ft 333 kts 14°
2026-05-05 03:01 30.88879 121.85907 10728 ft 328 kts 14°
2026-05-05 03:01 30.91056 121.86630 10446 ft 323 kts 14°
2026-05-05 03:02 30.93200 121.87343 10186 ft 318 kts 14°
2026-05-05 03:02 30.95329 121.87975 9930 ft 312 kts 12°
2026-05-05 03:02 30.97420 121.88524 9799 ft 303 kts 12°
2026-05-05 03:02 30.99429 121.89045 9708 ft 291 kts 11°
2026-05-05 03:03 31.01397 121.89557 9271 ft 293 kts 11°
2026-05-05 03:03 31.03377 121.90077 8870 ft 295 kts 12°
2026-05-05 03:03 31.05350 121.90601 8745 ft 287 kts 12°
2026-05-05 03:03 31.07279 121.91118 8443 ft 285 kts 12°
2026-05-05 03:04 31.09212 121.91637 8103 ft 284 kts 12°
2026-05-05 03:04 31.11127 121.92151 7858 ft 280 kts 12°
2026-05-05 03:04 31.13012 121.92658 7618 ft 276 kts 12°
2026-05-05 03:04 31.14874 121.92911 7360 ft 266 kts 352°
2026-05-05 03:05 31.16635 121.92355 7040 ft 263 kts 341°
2026-05-05 03:05 31.18382 121.91681 6688 ft 265 kts 341°
2026-05-05 03:05 31.20132 121.91008 6383 ft 265 kts 341°
2026-05-05 03:05 31.21880 121.90339 6066 ft 264 kts 341°
2026-05-05 03:06 31.23583 121.89690 5932 ft 257 kts 341°
2026-05-05 03:06 31.25280 121.89044 5864 ft 258 kts 342°
2026-05-05 03:06 31.27006 121.88389 5799 ft 263 kts 341°
2026-05-05 03:06 31.28749 121.87728 5652 ft 264 kts 341°
2026-05-05 03:07 31.30502 121.87064 5382 ft 264 kts 341°
2026-05-05 03:07 31.32242 121.86406 5110 ft 262 kts 341°
2026-05-05 03:07 31.33974 121.85751 4866 ft 259 kts 341°
2026-05-05 03:07 31.35652 121.85116 4795 ft 248 kts 341°
2026-05-05 03:08 31.37280 121.84496 4567 ft 245 kts 341°
2026-05-05 03:08 31.38883 121.83874 4344 ft 240 kts 341°
2026-05-05 03:08 31.40454 121.83259 4144 ft 236 kts 340°
2026-05-05 03:08 31.41993 121.82652 3938 ft 230 kts 338°
2026-05-05 03:09 31.43251 121.81587 3728 ft 224 kts 300°
2026-05-05 03:09 31.43707 121.79899 3593 ft 218 kts 267°
2026-05-05 03:09 31.43479 121.78160 3430 ft 216 kts 250°
2026-05-05 03:09 31.43010 121.76503 3233 ft 216 kts 243°
2026-05-05 03:10 31.42097 121.75169 3028 ft 209 kts 210°
2026-05-05 03:10 31.40768 121.74560 2888 ft 206 kts 193°
2026-05-05 03:10 31.39358 121.74195 2714 ft 208 kts 191°
2026-05-05 03:10 31.37950 121.73857 2554 ft 205 kts 188°
2026-05-05 03:11 31.36568 121.73838 2355 ft 199 kts 168°
2026-05-05 03:11 31.35223 121.74325 2203 ft 213 kts 162°
2026-05-05 03:11 31.33787 121.74866 2047 ft 214 kts 164°
2026-05-05 03:11 31.32409 121.75393 1978 ft 201 kts 163°
2026-05-05 03:12 31.31129 121.75886 1956 ft 188 kts 163°
2026-05-05 03:12 31.29914 121.76348 1955 ft 179 kts 163°
2026-05-05 03:12 31.28754 121.76788 1971 ft 171 kts 163°
2026-05-05 03:12 31.27658 121.77204 1971 ft 161 kts 163°
2026-05-05 03:13 31.26641 121.77590 1958 ft 149 kts 164°
2026-05-05 03:13 31.25662 121.77962 1973 ft 150 kts 164°
2026-05-05 03:13 31.24646 121.78346 1766 ft 154 kts 164°
2026-05-05 03:13 31.23648 121.78725 1565 ft 145 kts 165°
2026-05-05 03:14 31.22733 121.79073 1384 ft 133 kts 165°
2026-05-05 03:14 31.21845 121.79410 1236 ft 136 kts 165°
2026-05-05 03:14 31.20920 121.79760 1036 ft 142 kts 164°
2026-05-05 03:14 31.19986 121.80113 858 ft 143 kts 164°
2026-05-05 03:15 31.19034 121.80475 666 ft 146 kts 163°
2026-05-05 03:15 31.18049 121.80848 470 ft 146 kts 162°
2026-05-05 03:15 31.17103 121.81202 304 ft 141 kts 163°
2026-05-05 03:15 31.16164 121.81567 107 ft 146 kts 163°
2026-05-05 03:16 31.15207 121.81925 34 ft 136 kts 163°
2026-05-05 03:16 31.14405 121.82227 27 ft 102 kts 161°
2026-05-05 03:16 31.13875 121.82425 27 ft 64 kts 166°
2026-05-05 03:16 31.13564 121.82411 27 ft 32 kts 190°
2026-05-05 03:17 31.13355 121.82370 28 ft 30 kts 184°
2026-05-05 03:17 31.13214 121.82396 27 ft 11 kts 184°
2026-05-05 03:17 31.13176 121.82332 27 ft 10 kts 253°
2026-05-05 03:17 31.13152 121.82245 27 ft 15 kts 253°
2026-05-05 03:18 31.13111 121.82097 27 ft 18 kts 252°
2026-05-05 03:18 31.13130 121.81996 27 ft 10 kts 338°
2026-05-05 03:18 31.13202 121.81972 27 ft 11 kts 343°
2026-05-05 03:18 31.13278 121.81942 27 ft 14 kts 341°
2026-05-05 03:19 31.13569 121.81832 27 ft 24 kts 342°
2026-05-05 03:19 31.13726 121.81773 28 ft 24 kts 342°
2026-05-05 03:19 31.13883 121.81714 28 ft 24 kts 342°
2026-05-05 03:20 31.14038 121.81655 27 ft 24 kts 342°
2026-05-05 03:20 31.14195 121.81597 28 ft 24 kts 342°
2026-05-05 03:20 31.14352 121.81537 27 ft 24 kts 342°
2026-05-05 03:20 31.14509 121.81478 27 ft 24 kts 342°
2026-05-05 03:21 31.14666 121.81418 28 ft 24 kts 342°
2026-05-05 03:21 31.14823 121.81359 27 ft 24 kts 342°
2026-05-05 03:21 31.14979 121.81301 28 ft 24 kts 342°
2026-05-05 03:21 31.15141 121.81239 27 ft 27 kts 342°
2026-05-05 03:22 31.15358 121.81156 27 ft 39 kts 342°
2026-05-05 03:22 31.15580 121.81074 27 ft 33 kts 342°
2026-05-05 03:22 31.15768 121.81002 27 ft 19 kts 342°
2026-05-05 03:22 31.15814 121.80935 27 ft 10 kts 260°
2026-05-05 03:23 31.15793 121.80854 27 ft 10 kts 251°
2026-05-05 03:23 31.15770 121.80768 28 ft 12 kts 252°
2026-05-05 03:23 31.15770 121.80690 28 ft 9 kts 314°
2026-05-05 03:23 31.15830 121.80658 28 ft 10 kts 341°
2026-05-05 03:24 31.15894 121.80633 28 ft 6 kts 341°
2026-05-05 03:24 31.15909 121.80586 28 ft 7 kts 260°
2026-05-05 03:24 31.15898 121.80547 28 ft 3 kts 251°
2026-05-05 03:24 31.15894 121.80531 28 ft 0 kts 251°